HP25SK MPVR-MPMG

Flight info

Callsign HP25SK
Flight time N/A
Altitude 4000
Route DCT VFR
Aircraft K100/L-SBDGRY/S

Departure

Time N/A
Airport MPVR

Arrival

Time 2026-04-24 21:18
Airport Marcos A. Gelabert International Airport (MPMG)
Time Latitude Longitude Altitude Speed Heading
2026-04-24 20:56 9.56028 -78.94515 7 ft 0 kts 233°
2026-04-24 20:57 9.55996 -78.94559 7 ft 36 kts 234°
2026-04-24 20:57 9.55705 -78.94899 114 ft 78 kts 220°
2026-04-24 20:57 9.55221 -78.95207 396 ft 85 kts 206°
2026-04-24 20:57 9.54768 -78.95633 667 ft 103 kts 229°
2026-04-24 20:58 9.54226 -78.96234 964 ft 122 kts 234°
2026-04-24 20:58 9.53661 -78.96880 1458 ft 122 kts 231°
2026-04-24 20:58 9.53087 -78.97515 1984 ft 121 kts 231°
2026-04-24 20:58 9.52534 -78.98129 2516 ft 117 kts 230°
2026-04-24 20:59 9.51986 -78.98723 3078 ft 112 kts 230°
2026-04-24 20:59 9.51466 -78.99307 3574 ft 113 kts 229°
2026-04-24 20:59 9.50950 -78.99916 4049 ft 113 kts 228°
2026-04-24 20:59 9.50435 -79.00543 4380 ft 127 kts 231°
2026-04-24 21:00 9.49826 -79.01312 4390 ft 150 kts 230°
2026-04-24 21:00 9.49152 -79.02176 4398 ft 160 kts 230°
2026-04-24 21:00 9.48445 -79.03075 4397 ft 166 kts 230°
2026-04-24 21:00 9.47719 -79.03995 4399 ft 171 kts 230°
2026-04-24 21:01 9.46955 -79.04936 4396 ft 174 kts 227°
2026-04-24 21:01 9.46122 -79.05837 4391 ft 175 kts 226°
2026-04-24 21:01 9.45269 -79.06736 4395 ft 178 kts 225°
2026-04-24 21:01 9.44416 -79.07626 4397 ft 178 kts 225°
2026-04-24 21:02 9.43557 -79.08524 4395 ft 176 kts 225°
2026-04-24 21:02 9.42699 -79.09425 4393 ft 177 kts 225°
2026-04-24 21:02 9.41842 -79.10322 4396 ft 177 kts 225°
2026-04-24 21:02 9.40998 -79.11206 4391 ft 176 kts 225°
2026-04-24 21:03 9.40145 -79.12101 4393 ft 177 kts 225°
2026-04-24 21:03 9.39289 -79.13000 4392 ft 177 kts 225°
2026-04-24 21:03 9.38433 -79.13903 4397 ft 178 kts 226°
2026-04-24 21:03 9.37565 -79.14813 4412 ft 178 kts 225°
2026-04-24 21:04 9.36722 -79.15691 4490 ft 174 kts 225°
2026-04-24 21:04 9.35873 -79.16580 4503 ft 176 kts 225°
2026-04-24 21:04 9.35014 -79.17483 4502 ft 178 kts 225°
2026-04-24 21:04 9.34155 -79.18385 4498 ft 175 kts 225°
2026-04-24 21:05 9.33300 -79.19274 4496 ft 176 kts 225°
2026-04-24 21:05 9.32461 -79.20154 4498 ft 176 kts 226°
2026-04-24 21:05 9.31608 -79.21048 4514 ft 177 kts 225°
2026-04-24 21:05 9.30738 -79.21954 4514 ft 179 kts 226°
2026-04-24 21:06 9.29870 -79.22851 4507 ft 180 kts 225°
2026-04-24 21:06 9.28984 -79.23765 4499 ft 183 kts 225°
2026-04-24 21:06 9.28078 -79.24684 4501 ft 184 kts 225°
2026-04-24 21:06 9.27169 -79.25605 4499 ft 185 kts 225°
2026-04-24 21:07 9.26272 -79.26514 4501 ft 185 kts 225°
2026-04-24 21:07 9.25361 -79.27436 4501 ft 185 kts 225°
2026-04-24 21:07 9.24453 -79.28359 4498 ft 185 kts 225°
2026-04-24 21:07 9.23541 -79.29282 4505 ft 185 kts 225°
2026-04-24 21:08 9.22633 -79.30204 4504 ft 185 kts 225°
2026-04-24 21:08 9.21737 -79.31114 4505 ft 185 kts 225°
2026-04-24 21:08 9.20830 -79.32038 4500 ft 184 kts 225°
2026-04-24 21:08 9.19921 -79.32961 4505 ft 185 kts 225°
2026-04-24 21:09 9.19010 -79.33881 4507 ft 184 kts 222°
2026-04-24 21:09 9.17908 -79.34520 4504 ft 183 kts 212°
2026-04-24 21:09 9.17147 -79.35518 4507 ft 183 kts 253°
2026-04-24 21:09 9.16972 -79.36779 4513 ft 183 kts 264°
2026-04-24 21:10 9.16855 -79.38070 4517 ft 184 kts 264°
2026-04-24 21:10 9.16736 -79.39361 4517 ft 184 kts 264°
2026-04-24 21:10 9.16614 -79.40653 4518 ft 185 kts 264°
2026-04-24 21:10 9.16493 -79.41934 4516 ft 185 kts 264°
2026-04-24 21:11 9.16371 -79.43230 4512 ft 185 kts 264°
2026-04-24 21:11 9.16245 -79.44526 4509 ft 185 kts 264°
2026-04-24 21:11 9.16066 -79.45813 4510 ft 183 kts 251°
2026-04-24 21:11 9.15351 -79.46871 4512 ft 183 kts 227°
2026-04-24 21:12 9.14489 -79.47803 4510 ft 183 kts 227°
2026-04-24 21:12 9.13899 -79.48441 4481 ft 184 kts 227°
2026-04-24 21:12 9.12706 -79.49661 4479 ft 184 kts 216°
2026-04-24 21:12 9.11580 -79.50276 4495 ft 183 kts 206°
2026-04-24 21:13 9.10438 -79.50836 4495 ft 185 kts 206°
2026-04-24 21:13 9.09296 -79.51395 4497 ft 185 kts 206°
2026-04-24 21:13 9.08140 -79.51963 4496 ft 185 kts 207°
2026-04-24 21:13 9.06976 -79.52531 4497 ft 185 kts 206°
2026-04-24 21:14 9.05814 -79.53096 4498 ft 185 kts 206°
2026-04-24 21:14 9.04664 -79.53657 4497 ft 185 kts 206°
2026-04-24 21:14 9.03503 -79.54218 4498 ft 185 kts 206°
2026-04-24 21:14 9.02350 -79.54754 4391 ft 167 kts 203°
2026-04-24 21:15 9.01286 -79.54941 3906 ft 156 kts 173°
2026-04-24 21:15 9.00298 -79.54500 3494 ft 146 kts 142°
2026-04-24 21:15 8.99786 -79.53723 3396 ft 137 kts 94°
2026-04-24 21:15 9.00347 -79.52834 2694 ft 174 kts 26°
2026-04-24 21:16 9.01480 -79.52908 2416 ft 167 kts 325°
2026-04-24 21:16 9.02089 -79.53802 2402 ft 141 kts 281°
2026-04-24 21:16 9.02032 -79.54668 2465 ft 115 kts 240°
2026-04-24 21:16 9.01482 -79.55053 2251 ft 93 kts 198°
2026-04-24 21:17 9.00881 -79.55257 1768 ft 91 kts 209°
2026-04-24 21:17 9.00310 -79.55425 1259 ft 79 kts 195°
2026-04-24 21:17 8.99797 -79.55462 899 ft 68 kts 179°
2026-04-24 21:17 8.99489 -79.55454 718 ft 73 kts 172°
2026-04-24 21:18 8.98712 -79.55469 317 ft 81 kts 174°
2026-04-24 21:18 8.98193 -79.55475 109 ft 67 kts 184°
2026-04-24 21:18 8.97783 -79.55516 36 ft 53 kts 180°
2026-04-24 21:18 8.97500 -79.55548 31 ft 38 kts 184°
2026-04-24 21:19 8.97318 -79.55596 30 ft 20 kts 288°